Wind_Speed
48 49 50 50 50 49 47 46 45 44 42 41 41 40 38 37 35 34 32 30 28 26 25 24 24 23 22 22 22 21 21 20 19 18 17 17 16 16 16 17 16 15 14 14 14 13 13 13 14 14 14 14 13 13 14 12 11 10 9 7 7 8 8 9 11 10 7 8 10 11 11 12 13 13 14 16 17 18 19 21 22 23 24 24 24
48 48 48 50 50 50 49 47 46 45 44 44 43 41 41 39 38 36 35 33 31 29 27 26 25 25 24 23 23 23 23 22 21 20 19 18 18 17 17 17 17 17 16 16 15 15 14 13 13 14 15 14 13 12 12 13 14 13 10 8 7 8 9 10 12 13 10 8 9 10 9 10 11 11 14 17 17 18 19 19 19 19 19 19 19
48 47 47 48 50 50 50 48 47 47 46 45 45 43 42 41 40 38 37 35 33 31 30 29 28 27 26 25 24 24 25 24 23 23 21 20 19 18 18 18 18 18 18 17 16 16 15 14 13 13 13 14 14 13 13 13 14 13 12 10 10 10 11 12 13 15 15 13 11 10 9 10 12 13 15 17 17 17 17 17 17 16 16 16 16
49 47 46 47 49 50 50 49 49 48 47 47 46 45 43 42 41 39 38 36 35 33 31 31 31 30 29 28 26 25 26 26 25 25 24 22 21 20 19 19 18 18 18 17 17 16 16 16 15 13 13 14 14 14 14 14 14 14 13 13 13 14 13 14 16 17 19 18 15 13 13 14 15 16 17 18 17 17 19 19 18 16 16 16 16
47 47 47 47 48 49 51 51 50 49 48 47 46 45 44 43 42 40 39 38 36 34 33 33 33 33 32 31 29 27 26 26 26 26 25 24 23 21 21 20 19 18 17 17 17 17 17 17 16 15 15 16 16 16 16 15 15 15 15 15 16 16 16 17 18 18 20 21 19 16 16 17 18 19 19 19 20 21 21 20 18 17 18 17 16
46 45 45 45 47 50 51 52 52 51 50 48 47 46 44 43 42 41 40 39 38 36 35 34 35 35 34 33 31 29 28 28 27 26 25 25 24 24 23 22 21 20 19 18 18 18 18 18 17 17 18 18 18 18 17 16 16 16 16 16 16 17 18 18 18 19 20 21 20 18 18 18 20 21 19 20 22 23 22 21 18 18 19 18 16
45 44 44 43 45 49 51 53 53 52 51 49 47 46 45 44 43 42 41 40 39 38 37 36 36 36 35 34 32 31 30 30 29 28 26 26 25 25 25 24 24 23 21 20 19 19 19 19 19 19 19 20 19 19 19 18 18 17 17 17 16 17 17 17 17 18 20 20 20 20 20 21 22 22 22 21 22 22 21 21 21 19 18 17 17
46 44 44 43 44 47 50 53 53 53 51 50 48 47 46 45 44 43 42 41 41 40 38 37 37 36 36 35 34 33 32 32 31 30 29 28 26 26 25 25 25 25 24 22 21 20 20 19 19 19 19 19 19 19 19 19 19 19 18 17 17 17 17 17 17 18 19 20 21 21 22 23 23 23 23 23 23 23 19 19 21 21 18 18 19
47 46 45 45 45 46 49 51 52 52 51 50 49 49 47 46 45 43 42 42 41 41 40 39 38 38 37 36 35 34 34 33 33 32 31 30 28 27 26 25 26 26 25 24 23 21 20 19 19 19 19 18 18 19 19 20 20 20 19 18 18 18 18 18 18 19 19 20 21 22 23 24 24 24 24 24 24 23 20 18 20 21 20 20 23
47 47 48 49 47 45 46 49 51 51 51 51 50 49 48 46 45 44 43 42 41 42 42 41 40 39 38 37 37 36 35 35 34 33 31 30 29 28 27 26 26 26 26 25 24 23 21 20 20 19 19 18 18 18 19 19 19 19 19 18 19 19 20 20 20 19 19 21 22 22 24 25 25 25 25 25 24 23 21 21 23 23 23 26 27
47 48 47 48 47 45 45 48 50 50 51 51 50 50 49 47 46 45 44 43 41 41 42 42 42 40 39 38 37 37 37 36 35 34 32 31 30 30 29 28 27 27 26 25 24 23 22 21 21 20 20 20 19 18 17 17 18 18 18 18 19 19 20 21 21 20 21 22 23 23 25 26 26 25 26 27 26 24 24 25 25 25 26 27 26
40 46 47 46 46 45 45 46 48 50 51 51 51 50 49 48 47 46 45 44 42 41 42 44 43 41 40 39 38 38 38 37 36 34 32 31 30 30 30 30 29 29 28 27 26 24 23 23 22 21 21 20 20 20 20 19 19 19 19 20 21 21 21 22 22 22 23 24 25 25 25 26 26 26 25 25 24 23 23 22 22 23 23 23 23
29 35 41 45 46 46 45 46 48 49 50 51 51 50 49 49 48 48 47 45 43 41 42 44 43 42 41 40 39 38 38 37 36 35 33 31 30 30 30 30 31 30 30 30 28 27 26 24 23 22 21 20 20 22 23 23 23 23 23 23 24 24 24 24 24 23 24 24 26 26 25 25 26 24 21 20 20 19 19 19 19 20 20 21 23
33 31 34 41 45 46 46 46 47 49 49 50 50 50 50 50 49 49 47 46 44 43 42 43 44 42 41 40 39 38 37 37 36 35 33 32 31 30 30 30 31 32 31 31 31 30 28 27 26 24 23 22 22 22 23 23 23 24 25 25 25 24 24 23 23 23 24 24 25 27 25 23 23 22 18 15 16 17 18 19 19 20 21 23 26
41 40 39 41 45 48 48 47 47 48 49 49 50 50 51 51 50 49 48 47 46 45 43 43 44 43 42 41 40 39 38 37 35 34 33 31 30 30 30 31 32 32 32 32 32 32 30 29 28 27 25 24 24 24 25 24 24 24 25 26 25 24 23 23 22 22 23 24 25 25 24 22 21 20 16 13 15 16 17 18 20 21 23 25 25
41 45 45 45 47 50 50 48 48 48 49 49 50 51 51 51 51 50 48 48 47 46 45 44 44 44 43 42 41 40 39 38 35 33 31 29 29 29 30 31 32 32 33 33 33 33 32 31 30 29 28 26 25 24 25 26 27 28 28 28 28 27 25 22 21 22 23 23 23 23 22 22 20 18 14 13 15 16 17 19 20 21 23 24 23
40 44 45 44 48 52 51 49 49 48 49 50 50 51 51 51 51 50 49 48 48 47 47 46 45 44 44 44 43 42 40 39 37 34 31 29 29 29 30 31 31 32 32 32 33 33 33 32 31 30 29 28 26 24 23 25 27 29 30 30 29 29 26 23 22 23 23 23 23 23 23 22 19 16 15 15 15 16 18 20 20 19 20 20 21
38 44 45 43 46 52 53 50 49 49 49 50 50 50 51 51 51 51 50 49 48 48 47 46 46 45 45 45 45 44 42 41 39 36 33 31 30 30 30 30 30 30 31 31 33 34 34 32 31 31 30 29 27 26 24 24 25 26 27 28 29 29 26 23 23 23 24 24 24 24 24 22 19 17 16 15 16 17 19 20 19 18 18 18 19
37 42 45 43 44 50 53 51 50 49 49 50 50 50 50 51 51 51 50 49 48 47 46 46 46 46 45 45 45 45 44 42 40 38 36 33 32 31 30 30 30 29 29 30 32 34 35 34 33 33 32 31 30 29 28 27 27 26 25 26 28 29 26 24 24 24 25 26 26 25 23 21 19 18 17 16 17 17 18 18 17 16 18 19 19
36 38 42 42 42 47 52 52 51 50 49 49 49 50 50 50 50 51 51 49 47 46 45 46 46 46 46 45 45 46 46 44 42 40 38 36 34 33 32 32 31 30 29 29 30 32 35 36 36 36 35 34 32 32 31 30 29 28 28 28 29 27 25 24 25 26 26 27 25 23 21 20 20 18 17 16 15 16 17 18 17 17 18 19 19
37 38 41 42 42 45 50 52 52 51 49 48 48 49 49 49 50 50 51 50 48 47 45 45 45 46 45 45 45 45 46 46 45 43 40 38 37 35 35 35 33 32 31 30 31 31 32 33 34 35 36 35 34 34 33 33 32 31 31 31 29 27 27 27 27 27 27 26 24 21 20 20 19 18 16 15 15 17 19 20 18 17 18 19 19
36 38 41 42 41 43 49 52 51 50 49 48 48 49 49 49 49 49 50 50 49 48 46 45 45 45 45 45 45 45 45 45 45 45 43 42 39 38 38 37 35 34 33 33 33 32 30 29 30 31 32 33 34 34 34 34 33 33 33 32 30 30 30 30 29 28 27 26 24 22 21 20 19 18 17 17 19 21 22 22 20 19 20 21 21
34 37 40 42 41 43 47 50 50 50 49 49 48 48 48 49 48 48 50 50 50 49 48 46 45 44 44 44 45 44 44 43 43 43 43 43 42 41 40 39 37 36 36 35 34 32 30 28 27 27 28 29 31 32 33 33 34 34 33 31 30 30 30 30 29 29 28 27 26 25 24 23 23 22 22 23 25 26 26 26 25 24 23 23 23
33 37 41 45 46 45 46 48 48 49 49 48 48 48 48 49 49 48 49 50 50 50 50 48 47 45 44 44 43 43 43 42 41 39 39 39 40 41 41 40 38 37 37 36 34 31 30 28 27 26 27 27 28 29 30 30 31 30 29 27 26 26 28 28 28 28 28 27 27 26 25 25 24 25 25 26 27 27 27 26 24 23 23 23 23
32 37 41 46 49 47 46 47 48 48 48 48 48 49 48 49 49 48 49 50 51 51 51 50 49 47 45 44 43 42 41 40 39 37 35 35 35 36 37 37 36 35 35 34 32 31 30 29 27 27 27 27 27 27 28 27 27 25 23 21 21 22 24 25 26 26 26 26 25 24 23 22 22 22 22 23 23 23 22 21 20 20 21 21 19
33 38 41 46 50 49 47 48 48 48 48 47 48 49 49 49 49 49 48 50 51 52 52 52 50 48 46 45 43 42 40 38 38 36 34 33 33 32 32 33 33 32 31 30 30 31 31 29 29 28 28 27 27 27 26 25 23 21 20 19 20 20 21 21 21 22 22 22 22 21 21 20 20 20 20 19 19 18 16 16 17 18 17 16 14
32 38 41 45 51 51 50 51 50 48 48 47 47 48 48 48 49 49 49 51 52 52 52 52 51 50 48 45 44 42 40 39 38 36 34 33 33 32 31 30 30 31 31 30 30 31 30 30 30 31 30 29 27 26 25 24 22 21 20 20 20 20 20 20 19 20 20 20 20 20 20 19 19 18 17 17 17 16 15 14 15 15 13 11 10
32 37 40 45 51 52 52 52 50 48 47 47 46 47 47 48 49 51 52 53 53 54 53 53 53 52 50 47 44 42 41 41 39 38 36 36 35 34 33 32 32 32 32 30 29 30 31 32 33 33 33 31 28 26 26 26 25 23 21 21 20 21 21 21 21 22 21 20 19 19 19 20 20 19 18 18 18 18 16 14 14 13 10 8 7
32 35 40 46 51 53 52 51 51 49 48 47 46 46 46 47 48 50 51 52 52 53 53 53 53 53 52 50 48 45 43 43 43 41 39 37 36 34 33 32 32 33 32 29 28 29 31 34 35 35 34 33 31 29 27 26 26 24 23 22 22 23 24 24 24 23 21 20 18 17 19 22 23 22 20 19 18 17 14 13 11 9 7 6 6
33 36 41 47 51 52 52 51 49 48 47 46 46 46 45 46 47 48 47 48 49 50 50 50 51 51 51 52 51 49 47 45 44 43 41 39 37 35 34 32 30 30 29 27 28 30 32 34 36 36 35 34 34 32 30 28 26 25 24 23 24 25 25 25 24 22 21 20 17 15 18 24 25 23 20 18 16 13 10 8 7 6 4 5 5
35 39 43 48 50 50 51 50 49 48 47 46 45 46 45 45 46 48 47 46 46 48 47 47 48 49 50 50 50 50 48 46 45 43 42 40 39 37 36 33 31 29 27 26 29 32 34 34 35 35 34 34 34 33 32 31 30 28 26 25 25 26 26 25 24 23 22 20 17 15 19 23 23 21 20 19 17 13 8 6 5 4 4 4 4
32 38 40 44 46 45 45 44 41 40 41 41 42 44 46 47 47 47 48 47 46 45 45 46 46 47 48 48 48 48 47 46 46 44 42 41 40 38 36 33 30 28 26 26 29 32 33 33 33 32 32 33 33 32 32 32 32 31 29 28 28 29 28 26 23 22 20 19 17 17 19 21 22 22 20 17 15 13 9 7 6 5 4 4 4
28 33 34 37 41 43 45 44 41 36 34 34 35 37 42 46 48 48 48 47 46 44 45 46 47 46 46 46 46 45 44 43 43 42 41 40 39 38 35 32 29 27 26 27 30 31 31 32 32 31 30 31 31 31 31 30 28 27 27 27 27 27 26 24 22 20 19 18 17 17 17 18 19 19 16 12 11 10 7 5 6 6 6 5 4
27 30 31 33 36 39 41 43 44 42 40 39 38 37 37 39 42 46 48 47 45 44 45 46 46 45 44 44 44 43 41 40 38 37 37 37 36 35 34 31 28 27 28 28 29 29 30 31 31 31 30 29 29 30 29 26 23 21 23 24 25 25 25 24 22 21 20 20 19 17 16 16 16 16 13 10 9 8 6 6 7 9 10 8 5
27 29 31 33 36 37 37 36 36 37 39 40 42 43 41 38 37 41 45 47 46 44 44 45 46 45 43 42 41 40 38 35 32 31 31 32 32 32 32 31 30 29 28 27 27 28 29 29 29 29 28 28 28 28 27 24 22 22 23 23 24 25 26 26 24 23 24 24 21 18 15 15 15 12 9 9 9 9 9 8 9 12 12 9 5
26 27 28 30 34 38 39 37 37 37 37 38 40 41 41 39 38 39 40 42 44 44 43 44 45 44 42 40 38 36 35 33 30 29 30 31 31 31 32 32 31 29 26 26 27 27 27 26 25 25 25 26 26 26 25 24 24 24 24 24 25 28 29 28 27 26 23 21 20 18 15 15 14 11 10 11 10 10 10 10 11 11 10 7 4
21 23 26 27 31 35 36 37 38 39 38 38 39 39 37 37 38 39 38 39 41 43 44 44 44 43 42 39 37 35 35 33 31 29 30 31 30 30 30 30 29 26 25 27 28 27 26 26 24 23 23 23 24 25 25 26 27 27 27 27 29 30 29 27 26 24 20 19 19 18 15 16 15 13 12 12 11 10 11 12 11 10 8 5 4
16 17 20 24 30 34 35 35 37 38 38 38 39 39 37 36 37 37 38 39 43 46 46 45 44 43 42 40 38 36 35 34 31 30 30 29 28 27 27 28 27 25 25 27 28 27 26 25 24 22 22 21 21 23 25 26 28 29 28 28 28 27 25 22 16 14 17 21 20 17 16 16 16 14 13 12 12 12 11 11 11 10 8 5 3
15 16 17 19 23 29 33 34 35 36 38 39 40 40 40 39 39 39 39 42 47 49 48 46 45 43 42 40 37 34 33 32 31 29 28 27 27 27 28 28 27 25 24 25 26 25 24 24 22 22 21 21 22 24 25 26 27 27 25 26 25 23 21 17 11 10 18 23 20 16 14 13 13 13 13 13 15 16 13 11 11 11 9 6 5
13 14 14 14 17 23 29 34 35 34 36 40 43 42 41 42 43 44 44 46 49 50 47 45 44 43 39 36 34 32 30 28 26 25 26 28 28 29 29 28 27 26 25 25 25 24 24 24 23 23 22 23 23 23 22 22 21 20 20 21 19 15 12 11 10 13 19 21 17 15 14 13 13 14 13 12 13 15 14 11 11 10 7 6 7
6 7 8 11 15 20 26 29 30 31 34 37 39 40 41 40 41 43 45 46 47 46 43 41 41 39 35 33 32 32 30 28 27 27 29 30 31 30 29 28 27 26 26 26 27 27 27 26 26 25 24 24 22 21 19 18 17 17 18 17 14 11 12 14 15 17 19 20 18 18 17 15 15 14 13 11 12 13 13 12 11 10 9 8 7
2 1 5 9 12 17 22 24 25 28 32 32 32 35 38 38 38 40 42 43 43 43 41 39 37 35 32 31 31 31 30 31 32 32 32 32 31 30 29 28 27 27 28 28 29 29 29 28 27 26 25 24 23 22 21 20 20 20 19 18 17 17 19 20 20 20 22 22 20 19 18 17 16 15 15 15 14 14 14 13 13 13 12 10 9
9 6 6 9 10 13 19 23 26 28 29 30 31 33 36 39 41 41 40 39 38 38 39 38 36 33 31 30 31 31 31 32 33 32 30 30 30 29 28 28 28 28 28 29 29 28 28 27 27 26 26 25 24 23 23 22 22 21 20 20 21 21 22 22 21 22 23 23 20 18 19 20 20 19 19 18 16 15 14 14 15 15 14 12 11
14 13 12 12 12 13 16 21 27 29 29 30 30 29 30 35 38 37 34 32 32 31 32 34 33 32 30 29 29 29 31 32 33 32 30 29 29 28 28 28 28 28 28 28 27 27 26 26 26 26 25 24 23 22 21 21 21 21 21 21 22 23 22 22 22 22 22 22 20 18 20 21 21 20 19 18 16 15 15 15 16 16 15 14 13
17 16 16 16 15 15 18 21 25 28 30 30 29 27 27 29 31 29 28 28 28 27 27 29 28 28 28 27 26 27 29 30 30 30 30 29 28 28 28 27 27 27 27 26 25 25 25 25 25 25 25 24 23 22 22 22 23 22 21 20 21 21 21 21 22 22 21 20 19 18 19 19 18 17 18 18 17 17 16 16 18 18 17 16 15
20 19 18 18 18 17 18 19 18 19 22 25 27 28 27 27 27 26 25 25 25 26 28 29 29 29 28 28 27 27 28 28 28 28 28 27 27 26 25 25 25 25 25 26 25 25 24 24 24 23 23 23 22 22 23 23 23 23 21 20 20 20 19 21 23 24 22 20 19 17 16 16 16 16 16 17 17 17 17 18 19 19 19 18 18
21 21 20 19 19 19 19 19 18 17 17 19 21 23 25 26 27 27 27 27 28 29 31 32 31 30 29 28 27 26 26 26 26 25 24 24 24 24 24 24 24 24 24 24 24 23 22 22 21 21 21 22 22 23 23 22 22 22 21 20 20 20 19 20 22 22 21 20 18 17 15 16 17 16 16 16 16 17 17 18 19 19 20 21 21
18 20 21 21 21 21 21 21 21 21 22 22 22 22 23 23 24 25 27 29 31 32 33 33 32 31 30 29 27 26 25 25 24 23 23 22 22 23 23 24 24 24 25 24 23 21 21 21 21 22 22 22 22 22 21 20 19 19 18 18 18 19 19 19 19 19 18 18 17 15 15 15 16 16 16 16 16 17 18 18 18 18 19 19 19
16 17 19 21 22 22 22 22 22 22 23 24 24 25 25 24 24 25 26 28 28 28 28 28 28 27 27 26 25 23 23 22 21 20 20 20 21 21 22 22 22 22 22 21 20 19 19 20 20 21 21 21 20 19 18 17 16 16 15 15 15 15 15 15 15 15 15 14 13 13 14 15 15 15 15 16 16 16 15 15 14 14 13 13 13
15 15 17 19 21 21 21 22 23 23 23 23 23 25 25 26 27 27 27 26 25 23 22 21 22 22 22 22 22 21 21 20 20 21 21 22 22 22 22 22 22 21 21 21 20 19 19 18 18 18 19 19 18 17 15 15 14 14 13 12 12 12 12 11 11 12 12 12 11 12 14 15 14 13 13 13 13 13 12 12 12 12 12 12 12
12 13 15 17 19 19 19 20 22 22 22 22 23 24 25 26 27 27 26 26 25 23 21 20 20 21 22 22 23 23 23 24 24 25 25 24 24 23 22 22 21 20 20 19 19 18 18 17 17 17 17 16 15 15 14 14 13 12 11 10 10 10 10 10 9 10 11 10 9 10 12 12 12 11 11 11 12 11 11 11 12 12 12 12 12
Wind_Direction
212 214 215 216 216 218 219 220 221 222 222 222 223 223 225 227 229 231 232 231 231 228 227 226 225 226 225 222 218 214 216 217 214 214 217 216 215 214 213 213 215 217 218 218 216 219 223 216 208 210 218 223 222 216 216 223 233 239 244 250 260 270 272 275 279 273 250 244 254 259 267 276 283 292 302 306 310 311 309 309 311 313 315 317 319
212 215 216 216 217 218 219 220 221 222 222 223 224 225 225 227 229 231 231 231 230 226 226 227 228 228 227 225 221 217 217 219 218 215 216 218 217 217 217 216 216 217 217 220 220 222 225 225 220 219 224 229 231 230 225 225 233 243 249 255 266 278 285 286 287 286 276 266 274 277 275 282 293 303 310 312 316 316 314 316 318 319 321 322 325
213 215 217 218 218 218 219 219 220 221 222 223 224 225 226 227 229 230 230 230 229 225 223 225 227 228 229 229 226 220 218 220 222 220 219 220 221 221 222 222 221 220 220 221 222 223 226 229 229 227 230 234 235 236 235 231 235 241 245 254 266 273 280 283 285 289 291 291 293 294 295 300 305 313 316 318 319 319 321 328 331 331 332 332 335
214 214 216 219 219 218 218 218 219 220 221 222 224 225 225 226 227 228 228 228 228 226 222 222 225 227 229 230 229 223 219 220 223 224 223 224 224 223 224 227 227 224 222 223 224 226 228 231 233 233 234 238 239 240 241 239 240 242 243 246 255 261 268 274 279 286 291 293 297 300 304 307 309 316 321 321 323 325 330 336 338 338 339 339 339
213 215 217 218 218 218 218 218 218 219 220 222 223 223 224 225 225 226 226 226 226 225 221 219 222 225 227 230 230 225 221 221 222 223 224 224 225 225 224 226 229 228 225 224 226 228 231 234 235 236 238 240 243 244 244 244 244 247 247 243 245 251 256 263 271 277 280 285 292 297 301 306 310 317 322 323 326 330 333 335 336 336 336 337 336
212 214 216 217 217 218 218 218 218 219 220 221 221 221 221 222 222 223 224 223 224 224 222 219 220 223 226 230 232 229 225 225 224 224 224 224 224 225 225 225 228 230 229 227 226 228 232 236 236 236 240 243 245 247 249 249 249 249 251 249 247 249 252 257 264 270 276 283 290 294 299 305 310 316 323 325 325 328 331 331 330 332 332 329 327
213 214 215 216 216 217 218 218 218 218 219 220 220 219 219 220 221 222 223 222 221 221 221 220 220 222 225 228 231 232 229 228 227 227 227 226 225 224 224 225 227 231 233 231 229 229 233 238 239 239 241 243 246 248 250 250 251 251 253 254 255 254 255 259 262 268 275 281 286 291 298 304 308 315 323 326 323 324 327 325 324 327 326 318 316
213 214 214 216 217 218 218 219 218 218 218 219 219 218 218 219 220 222 222 222 220 219 221 221 221 222 225 227 230 231 230 229 228 228 229 229 230 229 227 226 228 231 235 236 236 234 235 238 242 243 243 243 245 246 248 248 249 251 253 254 256 257 259 262 262 266 271 276 282 288 296 302 307 313 320 321 319 321 323 318 318 320 317 310 310
214 213 214 216 219 218 218 218 217 217 217 217 217 218 218 218 219 220 222 222 221 219 220 222 222 221 224 226 228 230 229 229 228 229 230 230 232 233 232 231 231 232 235 238 239 239 238 239 241 243 245 245 244 244 246 247 248 251 253 254 256 259 262 264 265 267 270 274 281 289 295 301 307 312 316 316 317 319 319 314 311 310 307 303 304
216 215 215 217 219 218 217 217 217 216 216 217 217 217 218 217 217 219 221 222 221 219 218 220 221 222 223 225 226 228 228 229 230 230 232 233 234 235 236 236 236 236 237 238 239 239 239 239 240 242 244 245 244 243 244 246 248 251 252 255 258 261 265 266 265 267 272 277 283 291 295 301 308 313 314 314 314 312 310 307 304 302 299 298 303
219 218 217 218 218 218 217 216 217 216 216 216 217 216 217 217 216 218 220 222 221 219 217 218 220 221 223 225 225 226 228 229 230 231 233 235 235 236 238 240 241 241 241 242 242 243 242 242 243 244 244 246 246 245 246 248 249 251 253 255 259 262 265 267 268 271 275 279 285 290 294 300 309 313 312 312 312 308 304 303 301 299 298 300 308
226 223 221 219 219 218 218 217 217 216 216 216 216 216 216 216 216 216 218 221 221 218 215 216 219 221 222 225 226 226 228 230 231 232 233 235 236 238 239 241 243 244 245 246 247 248 247 248 248 247 246 247 246 246 250 253 255 255 256 257 260 264 266 267 268 271 274 279 285 288 292 300 307 310 312 312 310 305 302 301 299 299 303 309 315
241 232 224 221 220 220 219 218 218 217 217 217 216 216 215 214 215 215 217 219 220 219 215 215 217 220 222 224 226 227 228 230 231 232 233 234 236 237 238 240 243 245 246 248 249 250 251 251 251 251 251 250 246 244 246 249 253 254 255 257 260 264 265 265 264 267 271 276 281 285 292 299 303 308 314 312 305 302 301 302 304 306 312 317 318
240 240 230 222 222 222 221 220 219 218 218 217 216 215 214 214 215 215 216 217 218 218 216 214 215 219 222 224 227 228 230 230 231 233 234 234 234 235 237 239 241 244 246 248 250 251 252 253 254 254 255 254 251 249 248 249 251 253 254 256 259 262 262 261 260 262 267 272 278 285 293 299 301 307 314 309 301 301 304 307 311 313 317 318 319
229 231 228 222 221 223 223 221 220 219 218 217 216 216 215 215 215 214 214 215 217 219 218 215 215 217 221 224 227 229 231 232 233 233 234 234 234 234 235 237 238 240 244 246 249 251 252 254 255 257 257 256 253 251 250 251 251 253 256 257 261 264 264 262 261 263 268 273 279 285 293 299 302 308 314 309 302 302 304 307 312 316 317 317 319
226 224 224 221 219 221 222 222 221 220 218 217 217 216 216 215 214 214 213 214 216 218 219 218 216 216 219 222 226 229 231 233 234 234 235 235 234 233 234 235 236 237 240 243 246 248 251 252 254 256 257 258 256 252 249 248 248 251 254 258 262 266 267 266 266 268 273 277 282 288 295 300 304 309 309 303 301 302 303 306 312 317 315 314 320
227 222 222 220 218 219 220 221 221 220 218 218 218 218 217 216 215 214 213 213 215 217 218 219 218 218 218 220 224 228 230 233 235 235 235 235 234 233 234 235 236 237 238 241 243 246 248 250 251 254 256 258 259 257 253 249 247 249 253 257 260 264 268 270 272 275 279 284 288 293 297 299 300 299 296 294 295 298 299 304 313 317 311 311 318
229 224 221 220 220 220 219 220 221 220 219 219 219 219 218 217 216 214 213 213 215 217 218 219 219 220 219 220 222 225 228 232 234 235 235 235 233 234 234 235 236 236 237 239 241 243 246 248 250 252 255 259 261 261 259 255 251 251 254 257 260 265 270 274 278 281 285 289 291 294 296 297 295 293 290 288 287 288 292 302 314 314 307 307 313
234 228 223 223 224 221 219 219 220 221 221 221 220 220 219 218 217 215 214 214 215 217 218 218 219 220 221 221 222 224 226 229 232 234 235 234 234 234 235 235 236 237 237 238 240 241 242 245 247 249 254 259 261 262 262 259 257 257 258 260 262 267 273 278 282 285 286 286 288 290 290 291 291 292 293 289 284 284 289 301 309 305 300 302 306
242 236 228 227 228 224 219 219 220 221 222 222 221 220 220 219 217 216 215 215 215 216 218 219 220 221 221 222 223 224 225 227 229 231 232 233 233 234 234 235 237 239 239 239 240 240 241 242 245 247 251 256 259 261 262 260 260 261 261 262 265 270 277 281 281 282 281 281 283 285 286 286 288 292 296 294 288 285 288 294 296 293 294 299 301
245 240 232 229 231 228 223 220 219 220 222 223 221 220 220 219 218 217 216 215 215 215 217 219 221 221 222 223 224 225 226 227 228 229 230 232 233 232 233 236 239 241 243 244 245 245 244 245 246 248 251 254 257 259 260 261 262 262 262 264 269 275 279 279 279 278 278 279 281 281 281 284 289 294 296 293 287 285 287 290 291 290 291 293 295
248 241 233 231 233 231 225 221 219 219 220 221 220 220 219 219 218 217 216 216 215 215 216 218 220 222 222 223 225 227 229 229 229 229 230 231 232 232 233 237 241 243 244 246 248 250 251 251 251 251 252 254 256 258 259 261 262 263 265 268 272 274 275 275 276 276 275 276 276 275 274 276 281 285 286 283 282 283 285 287 289 290 290 290 291
251 245 236 232 233 232 225 221 220 219 218 218 219 219 219 218 218 218 217 216 215 215 215 217 219 221 222 223 225 227 230 231 231 231 231 231 233 234 235 239 242 242 244 247 250 253 255 256 255 254 253 253 254 256 258 260 261 263 266 268 270 270 270 270 272 272 272 273 273 272 272 271 271 271 271 272 274 276 278 282 286 289 289 288 289
253 248 240 233 232 231 227 223 221 219 218 217 218 218 218 218 217 218 217 216 215 215 215 216 218 220 221 222 224 226 228 231 233 233 232 231 232 234 236 239 241 242 244 247 251 253 256 257 257 257 256 255 256 256 257 258 259 262 264 266 266 265 264 265 266 267 268 270 272 273 274 273 271 268 265 265 266 268 272 278 282 285 286 286 287
253 246 241 234 230 229 227 224 222 220 218 216 217 217 217 217 217 217 217 216 216 216 216 215 216 218 220 221 223 224 227 229 232 233 233 232 232 233 234 237 239 241 243 246 249 252 255 257 257 257 256 256 256 257 257 258 259 261 263 262 259 257 257 258 260 263 266 269 272 274 273 270 266 262 261 262 264 265 268 272 274 278 282 283 285
251 242 239 234 229 226 224 222 221 220 218 217 217 218 217 216 217 217 217 217 217 217 216 216 216 217 219 221 222 223 225 226 230 232 233 233 233 233 234 235 236 238 241 243 247 250 253 255 257 256 254 254 254 255 257 259 260 260 259 256 252 251 252 254 258 262 267 270 272 272 270 267 265 265 266 266 263 259 259 261 268 275 277 280 286
247 238 238 233 227 222 220 218 218 217 216 216 217 218 218 218 217 217 217 217 218 217 217 216 216 216 217 219 221 222 223 225 228 230 231 232 233 234 234 234 234 234 236 239 243 246 249 251 253 253 254 253 253 254 256 257 256 254 253 253 253 253 253 256 261 266 270 272 274 274 275 274 274 274 271 262 253 250 252 258 268 272 274 281 286
245 238 237 231 223 218 216 216 216 215 214 216 217 217 218 218 218 220 220 219 218 218 217 217 217 217 217 217 219 221 223 224 227 229 230 232 233 232 232 232 231 231 233 235 238 241 244 247 249 250 251 249 248 249 251 252 252 252 251 251 253 252 252 255 260 264 269 272 273 279 286 282 274 270 265 253 244 244 248 254 261 266 271 278 268
248 242 236 228 221 216 215 215 215 214 214 215 217 218 219 220 220 222 224 222 221 220 219 218 219 219 218 218 218 218 219 224 229 233 235 236 236 234 233 233 233 233 234 235 236 238 241 244 246 247 248 247 246 245 246 248 250 250 249 248 247 247 250 254 259 265 270 270 270 282 288 278 266 261 257 248 242 244 247 250 257 264 268 260 241
248 242 232 223 217 215 214 214 213 213 213 214 215 218 220 222 223 224 225 225 224 224 222 221 221 221 220 221 221 221 223 228 232 235 238 239 240 240 240 240 240 240 240 237 236 238 240 242 244 246 247 248 247 245 245 247 248 249 249 248 246 247 251 255 259 265 267 262 262 271 271 260 252 250 250 249 253 257 252 249 257 261 251 237 230
241 236 227 221 217 214 213 213 213 213 213 214 215 216 219 222 224 225 226 225 224 224 224 224 225 224 223 224 225 226 228 231 232 234 238 240 240 241 243 244 244 244 243 240 237 237 238 240 243 245 248 250 250 249 249 249 250 251 251 250 249 251 253 255 260 263 262 258 255 258 255 247 242 244 251 258 263 260 250 252 259 249 232 227 226
231 227 220 216 214 211 209 208 208 209 211 213 214 217 220 222 223 224 225 225 224 224 224 224 226 226 227 227 228 228 229 230 231 234 238 240 240 241 242 243 243 242 240 239 239 239 238 238 241 244 247 250 251 251 251 250 250 252 253 252 253 255 255 256 258 260 262 259 252 247 245 242 242 250 259 262 255 247 246 248 238 218 212 219 231
227 222 216 212 210 210 210 210 209 210 212 212 213 217 221 222 223 224 224 223 222 223 223 224 224 225 227 228 230 231 233 233 232 234 236 238 240 242 243 243 242 239 234 233 235 238 237 238 240 242 246 250 253 254 253 252 252 253 254 254 253 253 252 253 254 256 258 253 242 235 237 240 245 253 259 253 239 235 236 222 199 195 204 215 242
236 229 223 217 211 209 210 212 213 214 216 217 219 223 226 225 224 226 224 221 220 220 221 222 222 223 225 227 228 231 233 234 235 237 237 238 239 240 240 239 236 230 227 228 232 234 236 237 238 241 245 249 253 254 254 253 250 248 247 247 247 246 244 244 245 249 250 243 234 231 235 239 246 252 251 237 220 206 191 181 190 203 209 216 241
249 243 235 227 221 217 215 216 218 218 218 219 222 225 226 225 226 228 226 222 220 220 219 219 219 221 223 224 226 228 229 230 232 234 234 233 233 231 231 231 226 219 218 225 230 231 233 236 237 240 244 248 251 252 251 249 244 239 238 240 241 240 239 238 238 242 243 237 234 237 238 238 239 235 218 203 194 186 183 190 201 208 214 224 241
259 254 246 238 232 227 223 221 222 223 222 221 222 224 224 223 225 227 227 224 222 221 220 219 218 218 219 220 222 223 223 223 224 225 226 226 226 224 225 228 227 221 219 225 226 225 228 232 233 236 239 242 244 246 244 241 239 238 237 238 239 239 240 235 229 228 232 236 241 244 238 227 219 203 179 176 184 189 196 202 204 211 219 227 224
265 256 249 243 237 233 227 223 222 223 222 221 221 221 222 222 222 223 224 225 225 224 222 220 218 216 216 217 217 217 217 216 216 217 218 219 221 224 227 231 233 231 228 227 223 220 223 227 229 231 234 235 238 240 240 240 241 240 239 237 236 234 230 221 211 210 220 235 242 237 219 206 200 186 170 172 181 184 190 200 207 215 221 223 216
265 256 248 243 238 232 228 226 226 224 222 220 220 219 219 220 220 218 220 224 226 225 223 220 218 216 215 214 213 213 213 212 209 209 210 213 217 222 226 229 231 230 228 226 223 221 224 228 230 232 234 235 237 239 240 240 240 237 233 231 227 220 213 209 207 207 213 221 223 213 198 195 195 188 182 188 191 184 185 201 215 215 210 210 213
261 256 248 245 240 230 225 226 229 227 222 220 220 218 217 219 219 216 215 218 221 222 221 218 217 216 216 214 211 209 205 203 202 204 208 213 217 219 221 223 223 221 221 224 225 224 225 228 231 232 233 235 236 237 238 238 235 229 224 222 219 213 212 222 232 208 196 200 201 195 191 196 199 196 195 197 196 192 191 202 212 211 209 215 221
268 260 247 242 240 230 223 225 229 229 227 225 224 221 220 222 221 217 212 211 213 215 215 214 213 215 215 212 208 204 200 197 200 205 209 213 214 213 214 217 218 217 218 220 222 224 225 227 231 232 233 233 233 231 230 229 225 219 214 214 213 209 206 209 203 186 184 187 186 180 179 179 180 184 185 185 192 197 196 193 197 205 220 234 232
281 262 232 223 223 219 217 221 224 225 226 227 225 224 223 220 215 210 206 204 206 207 208 208 210 212 211 209 208 210 211 213 215 213 210 210 211 211 211 214 216 217 216 216 216 217 219 222 226 229 228 227 224 221 218 215 211 206 204 204 202 189 169 160 159 166 176 181 181 177 173 170 173 180 181 180 192 203 202 199 206 217 225 229 230
21 242 198 203 206 203 203 206 206 207 213 215 214 215 215 208 200 196 197 199 202 203 203 203 205 206 204 205 208 210 213 216 216 210 205 206 210 211 211 210 209 209 210 211 212 214 217 220 223 224 222 218 215 212 210 209 206 205 204 200 193 181 167 159 160 168 177 185 190 187 180 177 179 184 186 189 198 207 209 211 219 222 222 225 236
66 86 141 161 168 178 189 192 188 188 194 198 196 196 195 190 186 187 189 189 192 195 197 200 202 201 198 201 204 204 205 211 214 212 208 208 210 208 206 204 203 205 207 209 210 213 217 220 221 218 215 212 209 207 207 206 205 205 202 194 186 177 169 166 169 174 179 186 190 187 182 183 186 188 193 200 208 212 213 217 221 222 223 229 237
76 85 101 117 128 141 158 171 175 175 179 183 181 174 168 168 171 175 177 177 179 183 188 192 195 195 193 195 199 201 201 205 210 211 210 209 207 204 202 202 203 206 206 205 205 209 212 212 210 207 203 199 197 197 199 199 197 195 191 185 180 176 173 173 176 177 180 184 186 184 185 189 192 196 203 210 214 214 218 225 228 226 228 233 238
77 83 88 93 101 113 125 139 151 157 161 164 161 153 147 151 158 162 165 169 173 176 178 180 183 184 183 183 186 188 188 190 193 196 199 200 199 196 196 197 200 200 197 193 195 198 199 197 196 194 190 187 186 186 187 187 185 184 183 181 180 180 180 182 183 182 183 186 188 189 192 198 203 210 216 220 221 223 227 232 233 233 238 246 250
78 82 85 88 93 102 112 120 129 138 143 145 144 142 142 145 148 152 156 162 166 169 169 169 171 172 172 172 172 172 172 174 177 180 184 187 186 184 183 186 189 190 186 184 186 187 185 184 185 185 183 180 179 179 180 179 179 179 180 181 183 184 183 186 188 189 191 195 197 199 204 212 219 226 230 233 233 231 231 233 236 240 248 256 261
82 86 87 89 93 99 108 116 124 132 136 136 138 140 141 140 140 142 146 151 156 160 161 162 163 164 165 165 167 168 169 170 172 173 174 174 172 169 169 172 175 176 175 177 179 178 177 177 179 179 178 177 176 176 176 176 178 180 182 184 187 188 188 188 190 192 195 200 204 207 215 222 226 229 233 235 235 232 233 237 244 251 257 263 267
78 89 94 96 98 100 105 112 120 127 131 133 136 138 138 136 137 140 143 146 149 152 156 158 160 162 163 165 167 169 169 168 167 165 162 161 162 164 168 172 175 175 175 175 175 175 176 178 179 178 176 174 174 175 178 180 183 188 192 193 194 194 193 194 196 199 203 208 212 217 223 228 229 230 231 233 235 239 243 248 253 259 263 265 267
64 77 89 96 100 102 104 108 113 117 123 127 131 132 133 134 136 140 144 146 144 143 146 149 151 153 155 157 158 159 160 159 159 158 158 159 162 166 169 171 169 168 167 166 165 165 167 168 170 172 174 175 176 178 182 185 189 191 193 193 191 190 190 193 197 204 211 219 225 231 237 242 242 241 242 244 247 251 255 258 261 263 263 264 265
61 66 78 89 96 101 106 109 111 114 118 122 125 127 130 132 134 138 143 147 146 143 142 142 142 144 147 149 150 152 152 150 149 149 150 150 152 153 154 153 150 149 148 148 147 148 149 149 151 156 161 165 168 171 173 175 175 174 174 176 177 180 186 193 202 214 225 232 237 242 246 248 248 249 253 257 260 262 265 267 267 266 264 263 264
74 72 76 85 94 103 109 111 112 114 117 120 122 124 127 130 132 135 138 141 143 143 143 142 142 144 146 147 147 146 143 140 139 139 139 139 140 141 142 141 141 141 142 142 141 142 143 142 143 144 146 150 155 158 160 162 163 165 170 177 182 189 198 206 215 225 231 231 231 236 243 247 248 250 254 258 261 262 263 264 265 264 262 261 261
Height
1523 1526 1529 1532 1535 1537 1540 1543 1546 1549 1552 1555 1557 1559 1561 1563 1564 1567 1569 1570 1572 1574 1575 1577 1578 1579 1581 1582 1583 1585 1586 1587 1588 1589 1590 1591 1592 1593 1594 1595 1596 1596 1597 1598 1599 1600 1600 1601 1602 1602 1602 1603 1603 1604 1604 1605 1605 1605 1606 1606 1606 1606 1605 1605 1605 1604 1604 1605 1605 1605 1605 1604 1604 1603 1603 1601 1601 1600 1598 1597 1596 1595 1594 1593 1591
1518 1521 1524 1528 1531 1533 1536 1539 1542 1545 1548 1551 1553 1555 1557 1559 1561 1563 1565 1567 1569 1571 1572 1574 1575 1577 1578 1579 1581 1582 1584 1585 1586 1587 1588 1589 1590 1591 1592 1593 1594 1595 1595 1596 1597 1598 1599 1599 1600 1601 1601 1602 1602 1602 1603 1604 1604 1604 1604 1605 1604 1604 1604 1604 1603 1603 1603 1603 1603 1603 1603 1603 1602 1602 1601 1600 1599 1598 1597 1596 1595 1594 1593 1591 1590
1514 1516 1519 1523 1526 1529 1532 1534 1537 1541 1543 1546 1548 1551 1553 1556 1558 1560 1561 1564 1566 1568 1569 1571 1572 1574 1575 1577 1578 1579 1581 1582 1583 1584 1585 1587 1587 1588 1589 1590 1592 1593 1593 1594 1595 1596 1597 1598 1598 1599 1600 1600 1600 1601 1601 1602 1602 1603 1603 1603 1603 1603 1603 1603 1602 1601 1601 1601 1601 1601 1601 1601 1600 1600 1599 1598 1597 1596 1595 1594 1593 1592 1591 1590 1589
1511 1513 1515 1518 1521 1525 1528 1530 1533 1536 1538 1541 1544 1546 1549 1552 1554 1556 1558 1560 1562 1564 1566 1568 1569 1571 1572 1574 1575 1577 1578 1579 1581 1582 1583 1584 1585 1586 1587 1588 1589 1591 1592 1592 1593 1594 1595 1596 1597 1597 1598 1598 1599 1599 1600 1600 1601 1601 1601 1601 1601 1602 1602 1601 1601 1600 1599 1599 1599 1599 1599 1599 1598 1598 1598 1596 1596 1594 1593 1592 1591 1590 1589 1589 1587
1508 1510 1511 1514 1517 1521 1524 1526 1528 1530 1533 1536 1539 1542 1545 1548 1551 1553 1555 1557 1559 1561 1563 1565 1566 1567 1568 1570 1572 1574 1575 1576 1578 1579 1580 1582 1583 1584 1585 1586 1587 1588 1590 1591 1592 1592 1593 1594 1595 1596 1596 1596 1597 1597 1598 1598 1599 1599 1599 1600 1600 1600 1600 1600 1599 1599 1598 1597 1597 1597 1597 1597 1596 1596 1596 1594 1593 1592 1590 1590 1589 1588 1588 1587 1586
1504 1507 1508 1510 1512 1515 1518 1521 1523 1525 1528 1531 1534 1538 1541 1544 1547 1549 1551 1553 1555 1557 1559 1561 1562 1564 1565 1567 1568 1570 1572 1573 1574 1576 1578 1579 1580 1581 1582 1583 1585 1586 1587 1588 1589 1590 1591 1592 1593 1593 1594 1594 1594 1595 1595 1596 1596 1597 1597 1597 1598 1598 1598 1598 1598 1597 1597 1596 1595 1595 1595 1595 1594 1593 1593 1592 1591 1589 1588 1588 1587 1587 1586 1585 1585
1501 1503 1505 1506 1508 1510 1513 1516 1518 1521 1524 1527 1531 1534 1537 1540 1542 1545 1547 1550 1552 1553 1555 1557 1559 1560 1562 1563 1565 1567 1568 1570 1571 1573 1574 1576 1577 1578 1579 1581 1582 1583 1584 1586 1587 1588 1589 1590 1590 1591 1592 1592 1592 1593 1593 1594 1594 1594 1595 1595 1596 1596 1596 1596 1596 1596 1595 1594 1594 1593 1593 1593 1592 1591 1591 1590 1589 1588 1587 1586 1585 1585 1585 1583 1582
1498 1500 1502 1503 1504 1505 1508 1511 1514 1517 1521 1524 1527 1530 1533 1535 1538 1541 1543 1545 1548 1550 1551 1553 1555 1557 1559 1560 1562 1563 1565 1566 1568 1569 1571 1573 1574 1575 1577 1578 1579 1580 1581 1583 1584 1585 1586 1587 1588 1588 1589 1590 1590 1591 1591 1592 1592 1592 1593 1593 1594 1594 1594 1594 1594 1594 1593 1593 1592 1592 1591 1590 1590 1589 1589 1589 1588 1587 1586 1585 1583 1583 1583 1582 1581
1496 1498 1499 1499 1500 1501 1505 1508 1511 1515 1518 1521 1523 1526 1529 1532 1534 1537 1539 1541 1544 1546 1548 1550 1552 1554 1555 1557 1558 1560 1561 1562 1564 1566 1568 1569 1571 1572 1574 1575 1576 1577 1579 1580 1581 1582 1583 1584 1585 1585 1586 1587 1588 1588 1589 1589 1590 1590 1591 1591 1591 1591 1591 1592 1592 1591 1591 1591 1590 1590 1589 1588 1588 1588 1587 1587 1586 1585 1584 1584 1583 1581 1581 1580 1580
1495 1496 1497 1496 1497 1500 1503 1506 1508 1511 1514 1516 1519 1522 1525 1528 1530 1533 1535 1537 1540 1543 1545 1547 1548 1550 1552 1553 1555 1556 1557 1559 1560 1562 1565 1566 1568 1569 1571 1572 1573 1575 1576 1577 1578 1579 1580 1581 1582 1583 1583 1584 1585 1586 1586 1587 1587 1588 1588 1589 1589 1589 1589 1589 1589 1589 1589 1589 1588 1588 1587 1586 1586 1586 1585 1585 1585 1584 1583 1582 1581 1580 1580 1578 1578
1495 1496 1496 1496 1498 1500 1501 1503 1506 1508 1510 1512 1515 1518 1521 1524 1526 1529 1531 1533 1536 1539 1541 1543 1544 1546 1548 1550 1551 1552 1553 1555 1557 1559 1561 1563 1565 1567 1568 1569 1570 1572 1573 1574 1575 1576 1577 1578 1579 1580 1580 1581 1582 1583 1583 1584 1585 1585 1586 1586 1587 1587 1587 1587 1587 1587 1587 1586 1586 1586 1585 1584 1584 1584 1584 1583 1583 1583 1582 1581 1580 1579 1578 1577 1576
1496 1498 1498 1499 1499 1499 1500 1501 1503 1505 1507 1509 1512 1514 1517 1520 1522 1525 1527 1529 1532 1535 1537 1539 1540 1543 1544 1546 1547 1548 1550 1551 1553 1555 1558 1560 1562 1563 1565 1566 1567 1569 1570 1571 1572 1573 1574 1575 1576 1576 1577 1578 1579 1579 1580 1581 1582 1583 1583 1584 1584 1585 1584 1584 1584 1584 1585 1584 1583 1583 1583 1583 1582 1582 1582 1582 1582 1581 1581 1580 1579 1578 1577 1576 1575
1497 1498 1499 1499 1499 1499 1500 1500 1501 1503 1504 1506 1509 1512 1514 1516 1518 1520 1523 1525 1528 1531 1533 1535 1537 1539 1541 1542 1543 1545 1546 1548 1550 1552 1554 1556 1558 1560 1562 1563 1564 1565 1567 1567 1569 1570 1571 1572 1572 1573 1574 1575 1576 1577 1577 1578 1579 1579 1581 1581 1582 1582 1582 1582 1582 1582 1582 1582 1581 1581 1582 1582 1581 1581 1582 1581 1580 1580 1579 1578 1578 1577 1576 1575 1574
1495 1497 1498 1499 1498 1498 1499 1499 1499 1501 1502 1504 1507 1509 1511 1513 1514 1517 1519 1522 1524 1526 1529 1532 1533 1535 1537 1539 1540 1541 1543 1544 1546 1548 1550 1552 1555 1557 1558 1560 1561 1562 1563 1564 1565 1566 1567 1568 1569 1570 1571 1572 1573 1574 1575 1575 1576 1576 1577 1578 1578 1579 1579 1579 1580 1580 1580 1580 1580 1579 1580 1581 1580 1580 1581 1580 1579 1578 1577 1577 1577 1576 1575 1574 1573
1488 1492 1494 1496 1495 1495 1495 1496 1497 1498 1500 1502 1504 1506 1508 1509 1511 1514 1516 1518 1520 1522 1525 1527 1529 1531 1533 1535 1537 1538 1539 1541 1543 1545 1547 1549 1551 1553 1555 1557 1558 1559 1560 1560 1562 1563 1564 1565 1566 1567 1568 1569 1570 1571 1572 1572 1573 1573 1574 1574 1575 1575 1576 1577 1578 1578 1579 1579 1578 1578 1579 1579 1579 1579 1579 1579 1578 1577 1577 1576 1576 1574 1573 1572 1571
1482 1484 1485 1487 1490 1490 1490 1492 1493 1495 1497 1499 1500 1502 1504 1506 1508 1511 1513 1515 1517 1519 1521 1523 1525 1527 1529 1531 1533 1534 1535 1537 1539 1542 1544 1546 1548 1550 1551 1553 1554 1555 1556 1557 1558 1559 1560 1561 1562 1563 1564 1566 1567 1568 1569 1570 1570 1570 1570 1571 1572 1572 1573 1574 1575 1576 1577 1577 1577 1577 1577 1577 1577 1577 1578 1577 1577 1577 1576 1575 1574 1573 1572 1570 1569
1477 1479 1480 1481 1484 1485 1485 1486 1488 1491 1493 1494 1495 1497 1500 1502 1505 1508 1510 1512 1513 1515 1517 1519 1521 1523 1525 1527 1528 1530 1531 1533 1535 1538 1540 1542 1544 1546 1548 1549 1550 1551 1552 1553 1554 1555 1557 1558 1559 1560 1561 1562 1563 1565 1566 1567 1567 1567 1567 1568 1569 1569 1570 1571 1573 1574 1574 1575 1575 1575 1575 1575 1576 1576 1576 1576 1576 1575 1574 1573 1573 1572 1570 1569 1567
1473 1474 1475 1477 1479 1481 1481 1482 1484 1486 1487 1489 1491 1493 1496 1498 1501 1504 1506 1508 1510 1511 1513 1516 1518 1520 1521 1523 1524 1526 1527 1529 1531 1534 1536 1538 1540 1542 1543 1545 1546 1548 1549 1550 1551 1552 1553 1554 1555 1556 1557 1558 1559 1561 1563 1564 1564 1564 1565 1565 1565 1565 1566 1569 1570 1571 1572 1572 1572 1572 1572 1573 1573 1574 1574 1574 1574 1573 1572 1571 1571 1570 1569 1568 1566
1468 1470 1471 1473 1476 1477 1478 1478 1480 1481 1482 1484 1487 1489 1492 1494 1497 1500 1502 1504 1506 1509 1510 1512 1514 1515 1517 1519 1521 1522 1524 1525 1527 1529 1532 1534 1536 1538 1540 1541 1542 1544 1545 1546 1547 1548 1549 1551 1552 1552 1553 1554 1556 1557 1559 1560 1561 1561 1562 1563 1562 1562 1564 1566 1568 1569 1570 1570 1570 1570 1570 1571 1571 1571 1571 1571 1571 1571 1570 1570 1569 1568 1567 1566 1565
1465 1467 1469 1471 1473 1473 1474 1474 1475 1476 1477 1480 1483 1486 1488 1491 1494 1496 1498 1501 1503 1505 1507 1508 1510 1511 1513 1515 1517 1519 1520 1522 1524 1526 1528 1530 1532 1534 1535 1537 1538 1540 1541 1542 1544 1544 1546 1547 1548 1549 1550 1551 1552 1553 1555 1556 1557 1558 1559 1560 1559 1560 1562 1565 1566 1567 1567 1568 1568 1568 1568 1568 1568 1569 1569 1568 1568 1568 1567 1567 1566 1566 1564 1564 1563
1463 1465 1466 1467 1468 1469 1469 1470 1470 1472 1474 1477 1479 1482 1484 1487 1489 1492 1494 1497 1499 1501 1503 1504 1506 1508 1509 1511 1513 1515 1516 1518 1520 1522 1524 1526 1528 1530 1531 1532 1534 1535 1537 1538 1539 1540 1542 1543 1544 1545 1547 1547 1549 1550 1551 1552 1554 1555 1556 1556 1557 1559 1561 1562 1564 1564 1565 1565 1566 1566 1566 1566 1566 1566 1566 1565 1564 1564 1563 1563 1562 1562 1561 1560 1559
1461 1461 1462 1463 1464 1464 1465 1465 1466 1468 1471 1473 1475 1478 1480 1483 1485 1488 1490 1493 1495 1497 1499 1500 1502 1504 1505 1507 1509 1510 1512 1514 1516 1518 1520 1522 1524 1525 1526 1528 1530 1531 1532 1533 1534 1536 1538 1539 1540 1542 1543 1544 1545 1547 1548 1549 1550 1551 1552 1553 1555 1557 1558 1559 1561 1562 1562 1562 1563 1564 1564 1563 1563 1563 1562 1561 1560 1559 1558 1557 1557 1557 1557 1556 1555
1456 1457 1457 1458 1459 1459 1460 1461 1462 1464 1466 1468 1471 1473 1476 1479 1481 1483 1486 1488 1490 1493 1494 1496 1497 1499 1501 1503 1504 1506 1508 1510 1511 1514 1516 1518 1520 1521 1522 1524 1526 1527 1528 1529 1530 1532 1534 1535 1536 1538 1540 1541 1542 1543 1545 1546 1547 1548 1549 1551 1553 1554 1555 1556 1557 1558 1559 1559 1559 1560 1560 1560 1560 1559 1558 1557 1555 1554 1553 1553 1553 1553 1553 1553 1552
1450 1451 1452 1452 1453 1454 1455 1457 1458 1460 1461 1464 1466 1469 1471 1474 1476 1479 1481 1484 1486 1488 1490 1491 1493 1494 1496 1498 1500 1502 1504 1505 1507 1509 1512 1514 1516 1517 1518 1520 1522 1523 1524 1525 1526 1528 1529 1531 1533 1534 1535 1536 1538 1539 1541 1542 1543 1544 1546 1548 1550 1551 1552 1553 1554 1555 1555 1555 1555 1555 1555 1555 1554 1553 1552 1551 1550 1549 1550 1550 1551 1551 1551 1551 1550
1444 1445 1445 1446 1447 1449 1450 1452 1453 1455 1457 1459 1461 1463 1466 1469 1471 1474 1476 1479 1481 1483 1485 1487 1488 1490 1491 1493 1495 1497 1499 1501 1503 1505 1507 1510 1511 1513 1514 1516 1517 1519 1520 1521 1523 1524 1525 1527 1529 1530 1531 1532 1534 1535 1536 1537 1539 1541 1543 1545 1546 1547 1548 1549 1550 1551 1551 1551 1551 1550 1549 1548 1547 1546 1546 1545 1545 1546 1547 1548 1548 1548 1549 1549 1549
1437 1438 1439 1440 1442 1444 1445 1446 1448 1450 1452 1454 1456 1458 1461 1463 1466 1469 1472 1475 1476 1478 1480 1482 1484 1486 1488 1489 1491 1493 1495 1497 1499 1501 1503 1505 1507 1508 1510 1512 1513 1515 1517 1518 1519 1521 1522 1524 1525 1526 1527 1528 1529 1530 1532 1533 1536 1538 1540 1541 1543 1544 1545 1546 1546 1547 1547 1546 1545 1545 1544 1543 1543 1542 1542 1542 1543 1545 1546 1547 1546 1546 1546 1547 1548
1431 1432 1433 1434 1436 1438 1439 1440 1442 1445 1447 1449 1452 1454 1457 1459 1462 1465 1467 1469 1471 1473 1476 1478 1481 1483 1484 1486 1489 1491 1492 1494 1495 1497 1499 1501 1502 1504 1506 1507 1510 1511 1513 1514 1516 1517 1518 1520 1521 1522 1523 1525 1526 1527 1528 1530 1532 1534 1536 1538 1540 1540 1541 1542 1543 1542 1542 1542 1542 1542 1542 1542 1542 1542 1542 1543 1543 1544 1544 1544 1544 1543 1544 1545 1546
1427 1427 1428 1429 1430 1431 1433 1434 1436 1439 1442 1444 1447 1449 1452 1455 1457 1459 1460 1462 1465 1467 1470 1473 1476 1478 1481 1484 1486 1488 1490 1491 1492 1493 1495 1496 1498 1500 1501 1503 1505 1507 1508 1510 1512 1513 1515 1516 1517 1518 1519 1521 1523 1524 1525 1527 1529 1531 1533 1535 1536 1537 1538 1538 1538 1539 1539 1540 1541 1542 1543 1543 1542 1542 1542 1541 1541 1541 1541 1541 1540 1540 1541 1541 1542
1423 1423 1423 1424 1425 1426 1428 1430 1432 1434 1437 1440 1443 1446 1448 1451 1453 1455 1457 1460 1463 1465 1467 1469 1472 1475 1478 1481 1483 1485 1486 1487 1487 1489 1491 1493 1494 1496 1497 1499 1501 1502 1504 1507 1509 1510 1511 1512 1513 1514 1516 1518 1520 1521 1523 1524 1526 1528 1530 1532 1533 1533 1534 1534 1535 1536 1537 1538 1541 1543 1542 1540 1540 1540 1540 1539 1539 1539 1539 1539 1538 1538 1539 1539 1540
1419 1418 1418 1419 1420 1422 1424 1426 1428 1431 1433 1436 1439 1442 1445 1448 1451 1453 1456 1459 1462 1464 1467 1468 1470 1473 1475 1477 1478 1480 1481 1483 1484 1487 1489 1491 1493 1494 1495 1497 1499 1500 1502 1505 1506 1507 1507 1508 1509 1510 1512 1514 1516 1518 1520 1521 1523 1525 1527 1528 1529 1530 1530 1531 1532 1533 1534 1535 1537 1538 1535 1534 1536 1538 1538 1538 1538 1538 1538 1537 1537 1537 1537 1538 1538
1415 1415 1415 1416 1417 1418 1421 1423 1425 1427 1430 1433 1436 1439 1442 1445 1448 1451 1453 1456 1459 1462 1465 1467 1470 1472 1473 1474 1475 1477 1480 1482 1484 1486 1487 1489 1491 1492 1493 1495 1497 1499 1501 1502 1502 1502 1503 1504 1506 1507 1509 1511 1512 1515 1517 1518 1520 1521 1523 1525 1525 1526 1527 1527 1528 1529 1529 1530 1533 1532 1531 1531 1534 1536 1536 1536 1535 1535 1535 1535 1535 1535 1535 1536 1537
1413 1413 1413 1414 1414 1416 1418 1420 1422 1425 1428 1431 1433 1436 1439 1442 1444 1447 1450 1452 1455 1458 1461 1464 1466 1468 1470 1471 1473 1475 1477 1480 1482 1483 1485 1487 1488 1490 1492 1494 1495 1497 1499 1499 1498 1499 1500 1502 1503 1504 1506 1507 1509 1511 1513 1514 1516 1517 1519 1520 1521 1521 1522 1524 1525 1526 1526 1527 1530 1531 1530 1531 1533 1533 1533 1534 1533 1533 1533 1532 1532 1533 1534 1534 1535
1410 1410 1410 1410 1411 1413 1415 1416 1419 1423 1427 1430 1433 1437 1439 1440 1441 1444 1446 1449 1452 1454 1457 1459 1461 1463 1466 1468 1470 1471 1474 1476 1479 1481 1483 1484 1486 1488 1490 1492 1493 1495 1495 1495 1496 1497 1498 1499 1500 1502 1503 1504 1505 1507 1509 1511 1512 1513 1514 1515 1516 1517 1519 1520 1522 1523 1524 1525 1527 1529 1529 1530 1530 1530 1531 1531 1531 1532 1532 1532 1531 1532 1532 1533 1534
1407 1407 1406 1407 1409 1410 1412 1414 1416 1419 1422 1426 1431 1435 1439 1441 1442 1443 1444 1446 1449 1451 1453 1455 1457 1459 1461 1463 1465 1467 1470 1473 1475 1477 1479 1481 1484 1486 1488 1489 1490 1490 1491 1493 1494 1495 1495 1496 1497 1499 1500 1501 1503 1504 1505 1507 1509 1509 1510 1511 1512 1514 1516 1517 1519 1521 1521 1522 1524 1526 1526 1527 1527 1527 1527 1528 1530 1531 1532 1532 1532 1532 1532 1533 1533
1404 1404 1404 1406 1408 1409 1411 1414 1418 1419 1421 1422 1425 1428 1432 1437 1442 1444 1445 1445 1446 1448 1450 1452 1453 1455 1457 1459 1461 1463 1466 1468 1471 1473 1475 1478 1481 1482 1484 1485 1484 1485 1488 1491 1492 1492 1493 1493 1494 1496 1497 1498 1499 1501 1502 1504 1505 1506 1507 1508 1510 1511 1513 1514 1517 1518 1517 1517 1520 1522 1523 1524 1524 1524 1525 1527 1528 1530 1530 1531 1531 1531 1531 1532 1533
1401 1402 1403 1404 1405 1406 1408 1412 1416 1418 1419 1421 1422 1424 1428 1432 1436 1442 1446 1448 1447 1448 1449 1450 1451 1453 1454 1456 1458 1460 1462 1465 1467 1469 1472 1474 1477 1478 1480 1480 1479 1482 1486 1487 1486 1487 1489 1490 1492 1493 1494 1495 1496 1498 1499 1501 1501 1502 1504 1505 1507 1508 1509 1510 1513 1515 1515 1516 1517 1519 1520 1521 1521 1522 1524 1525 1527 1529 1530 1530 1531 1531 1531 1532 1532
1399 1399 1400 1401 1402 1403 1405 1409 1411 1412 1414 1416 1418 1421 1425 1428 1430 1434 1442 1447 1448 1448 1448 1448 1449 1450 1452 1453 1455 1457 1458 1461 1463 1466 1469 1471 1473 1475 1476 1476 1477 1480 1482 1482 1481 1483 1485 1487 1488 1490 1490 1491 1493 1495 1496 1498 1498 1499 1500 1502 1502 1503 1504 1506 1508 1512 1515 1516 1516 1517 1518 1519 1519 1520 1522 1524 1526 1528 1529 1530 1530 1530 1530 1531 1531
1397 1396 1397 1398 1398 1399 1402 1405 1407 1408 1410 1412 1414 1416 1419 1422 1424 1426 1431 1438 1443 1444 1445 1446 1447 1448 1449 1450 1451 1453 1455 1458 1460 1463 1465 1467 1469 1471 1472 1473 1475 1477 1479 1479 1480 1481 1482 1484 1485 1486 1487 1489 1491 1492 1494 1495 1495 1495 1496 1498 1499 1500 1502 1504 1505 1508 1511 1513 1513 1514 1516 1517 1517 1518 1520 1523 1524 1526 1527 1528 1529 1529 1529 1530 1530
1394 1394 1395 1396 1395 1396 1399 1402 1403 1404 1407 1409 1410 1411 1412 1414 1415 1416 1419 1423 1430 1436 1439 1442 1445 1446 1446 1448 1450 1451 1452 1455 1457 1460 1463 1465 1467 1468 1470 1471 1472 1474 1475 1476 1477 1478 1480 1481 1482 1484 1485 1487 1488 1489 1490 1491 1492 1492 1494 1496 1497 1498 1500 1502 1503 1504 1506 1509 1510 1512 1513 1515 1515 1516 1518 1519 1520 1521 1523 1525 1526 1527 1527 1527 1527
1393 1393 1394 1394 1394 1395 1397 1399 1400 1402 1405 1406 1406 1408 1409 1408 1408 1409 1410 1413 1420 1428 1434 1438 1441 1443 1445 1446 1447 1448 1451 1454 1457 1461 1463 1464 1464 1465 1466 1468 1469 1471 1472 1474 1475 1476 1477 1478 1479 1481 1483 1484 1485 1486 1488 1489 1490 1492 1493 1494 1495 1497 1499 1500 1501 1503 1505 1507 1508 1509 1511 1512 1512 1513 1515 1516 1516 1517 1518 1520 1522 1524 1524 1524 1524
1392 1392 1392 1393 1393 1392 1393 1395 1396 1399 1403 1404 1404 1406 1407 1406 1407 1410 1411 1413 1418 1425 1430 1435 1439 1442 1444 1444 1444 1448 1452 1454 1456 1459 1461 1461 1462 1463 1464 1465 1467 1468 1469 1471 1472 1473 1474 1475 1476 1478 1479 1481 1482 1484 1485 1487 1488 1490 1491 1492 1493 1495 1496 1497 1499 1501 1504 1505 1506 1507 1508 1509 1509 1510 1512 1513 1514 1515 1515 1516 1518 1520 1520 1520 1520
1391 1392 1392 1392 1391 1390 1390 1391 1393 1396 1399 1400 1401 1403 1404 1404 1407 1411 1414 1416 1419 1423 1428 1433 1437 1439 1441 1442 1443 1447 1450 1451 1452 1453 1456 1457 1459 1461 1462 1463 1464 1465 1466 1467 1468 1470 1471 1472 1473 1474 1476 1477 1479 1480 1482 1484 1485 1487 1488 1490 1491 1492 1494 1495 1497 1499 1501 1503 1504 1505 1506 1507 1507 1508 1509 1510 1511 1512 1513 1513 1514 1515 1516 1517 1517
1392 1393 1393 1392 1390 1389 1389 1390 1392 1394 1397 1398 1399 1400 1400 1401 1404 1409 1413 1416 1420 1423 1427 1431 1434 1436 1438 1439 1441 1443 1446 1448 1449 1451 1453 1455 1457 1458 1460 1461 1462 1463 1464 1465 1466 1467 1468 1468 1469 1471 1472 1474 1476 1477 1479 1481 1483 1484 1486 1488 1489 1491 1492 1494 1495 1497 1498 1500 1502 1503 1504 1505 1506 1507 1508 1508 1509 1510 1511 1511 1512 1513 1513 1514 1515
1396 1395 1394 1392 1390 1390 1390 1390 1391 1394 1396 1397 1398 1399 1399 1399 1402 1407 1412 1417 1421 1424 1427 1430 1432 1433 1435 1436 1438 1440 1442 1444 1447 1449 1452 1454 1456 1457 1458 1460 1461 1461 1462 1463 1464 1465 1465 1466 1467 1468 1469 1471 1473 1475 1477 1480 1481 1483 1485 1486 1488 1490 1492 1493 1495 1496 1497 1499 1501 1502 1503 1504 1505 1507 1507 1507 1508 1509 1509 1510 1511 1511 1512 1512 1513
1399 1398 1396 1394 1393 1394 1393 1392 1393 1393 1394 1394 1395 1397 1398 1399 1402 1406 1411 1416 1420 1423 1426 1428 1430 1431 1433 1435 1436 1438 1440 1442 1445 1448 1450 1453 1454 1455 1457 1458 1459 1460 1461 1462 1463 1464 1464 1465 1466 1467 1468 1469 1471 1474 1477 1479 1481 1483 1485 1486 1488 1490 1492 1493 1494 1495 1497 1498 1500 1501 1503 1504 1504 1505 1506 1506 1506 1507 1508 1508 1509 1509 1510 1511 1511
1401 1401 1399 1398 1397 1398 1398 1397 1398 1398 1396 1396 1396 1397 1398 1400 1403 1406 1410 1414 1417 1420 1423 1425 1428 1430 1432 1434 1436 1438 1440 1442 1444 1447 1449 1451 1453 1455 1457 1458 1459 1460 1461 1462 1463 1463 1463 1465 1466 1467 1468 1470 1472 1474 1477 1479 1482 1483 1485 1487 1488 1490 1491 1492 1494 1495 1496 1498 1499 1500 1501 1502 1502 1503 1504 1504 1504 1505 1506 1506 1506 1507 1508 1508 1509
1403 1402 1402 1401 1401 1402 1401 1401 1402 1402 1401 1401 1401 1402 1403 1403 1404 1407 1411 1415 1418 1420 1422 1424 1427 1429 1431 1434 1436 1438 1440 1443 1445 1447 1450 1452 1454 1456 1457 1458 1459 1460 1461 1462 1463 1464 1464 1465 1467 1468 1469 1471 1473 1475 1478 1480 1482 1484 1485 1486 1488 1490 1491 1492 1493 1494 1495 1496 1496 1497 1498 1499 1500 1501 1501 1502 1502 1502 1503 1503 1504 1505 1505 1506 1506
1405 1404 1404 1404 1405 1406 1406 1406 1406 1406 1406 1405 1406 1407 1407 1408 1408 1411 1415 1418 1420 1422 1423 1424 1426 1429 1431 1433 1435 1438 1440 1443 1445 1448 1450 1452 1454 1455 1456 1456 1457 1458 1460 1461 1463 1464 1465 1465 1466 1467 1469 1472 1474 1476 1479 1481 1483 1484 1485 1486 1488 1489 1490 1491 1492 1493 1493 1494 1494 1495 1496 1497 1497 1498 1499 1499 1499 1499 1499 1500 1502 1502 1503 1502 1502
1409 1407 1406 1406 1407 1408 1408 1409 1410 1411 1411 1411 1411 1410 1410 1411 1413 1415 1418 1421 1424 1426 1427 1428 1429 1430 1432 1434 1436 1438 1441 1443 1446 1448 1450 1452 1453 1454 1455 1456 1457 1458 1460 1461 1463 1465 1466 1466 1466 1467 1469 1472 1474 1477 1479 1481 1483 1484 1485 1486 1487 1488 1489 1490 1490 1491 1491 1492 1493 1494 1494 1494 1495 1496 1497 1497 1497 1497 1498 1498 1499 1499 1499 1499 1499
1412 1411 1409 1409 1409 1410 1411 1411 1412 1414 1415 1415 1415 1415 1415 1415 1417 1419 1422 1424 1427 1430 1432 1433 1434 1434 1435 1436 1438 1440 1442 1444 1446 1448 1450 1452 1453 1454 1455 1457 1459 1460 1461 1462 1464 1466 1467 1468 1469 1470 1471 1472 1474 1477 1480 1482 1483 1485 1485 1486 1487 1488 1488 1488 1489 1489 1490 1491 1492 1492 1493 1493 1493 1494 1494 1495 1495 1495 1495 1496 1496 1496 1496 1496 1495
1415 1414 1413 1411 1411 1413 1414 1414 1415 1416 1417 1418 1418 1419 1420 1420 1421 1424 1426 1428 1428 1430 1433 1436 1438 1439 1439 1439 1440 1442 1443 1445 1446 1448 1451 1454 1455 1457 1458 1460 1462 1463 1464 1465 1466 1467 1469 1470 1471 1473 1474 1474 1475 1477 1480 1483 1484 1485 1486 1487 1487 1487 1487 1487 1487 1487 1488 1489 1490 1491 1492 1492 1493 1493 1493 1493 1492 1493 1493 1493 1493 1493 1493 1493 1492